Probability
39 52 48 42 32 19 19 16 19 10 10 13 10 10 6 3 3 6 6 6 0 0 0 0 0 0 0 0 0 0 0 0 0 0 0 0 0 0 0 0 0 3 3
42 45 32 32 32 23 16 13 10 10 13 10 6 6 6 3 3 6 10 6 0 0 0 0 0 0 0 0 0 0 0 0 0 0 0 0 0 0 0 0 0 0 0
35 42 39 35 29 19 16 16 10 10 10 3 3 3 3 0 0 0 0 3 0 0 0 0 0 0 0 0 0 0 0 0 0 0 0 0 0 0 0 0 0 0 0
45 32 39 32 32 19 16 6 10 10 10 0 3 3 3 6 6 3 3 3 6 3 3 0 0 0 0 0 0 0 0 0 0 0 0 0 0 0 0 0 0 0 0
42 45 39 32 26 16 16 13 10 10 6 0 3 3 3 3 3 0 3 3 3 3 3 3 0 0 0 0 0 0 0 0 0 0 0 0 0 0 0 0 0 0 0
42 35 35 29 29 16 13 19 16 10 3 6 3 3 3 0 0 0 3 3 0 0 3 3 0 0 0 0 0 0 0 0 0 0 0 0 0 0 0 0 0 0 0
42 39 35 29 29 26 19 23 16 13 6 6 3 0 0 0 0 3 3 3 0 0 0 0 0 0 0 0 0 0 0 0 0 0 0 0 0 0 0 0 0 0 0
45 42 39 29 26 26 16 16 16 13 10 6 6 3 0 0 0 0 3 3 3 0 0 0 0 0 0 0 0 0 0 0 0 0 0 0 0 0 0 0 0 0 0
26 35 26 23 23 23 13 16 13 16 13 10 6 6 3 0 0 3 0 3 0 0 0 0 0 0 0 0 0 0 0 0 0 0 0 0 0 0 0 0 0 0 0
23 19 13 16 16 16 13 13 10 10 10 6 6 6 6 3 3 3 3 0 0 0 0 0 0 0 0 0 0 0 0 0 0 0 0 0 0 0 0 0 0 0 0
19 19 13 10 10 6 13 10 10 10 6 6 6 6 6 6 3 3 3 0 0 0 0 0 0 0 0 0 0 0 0 0 0 0 0 0 0 0 0 0 0 0 0
23 19 13 6 3 10 6 3 6 6 10 10 6 6 6 6 6 3 3 3 3 0 0 0 0 0 0 0 0 0 0 0 0 0 0 0 0 0 0 0 0 0 0
19 19 10 10 6 6 6 6 3 6 6 16 13 6 6 6 6 6 3 3 3 3 3 0 0 0 0 0 0 0 0 0 0 0 0 0 0 0 0 0 0 0 0
16 19 6 3 3 3 6 6 6 3 3 6 13 10 10 6 6 6 3 3 3 3 3 3 3 0 0 0 0 0 0 0 0 0 0 0 0 0 0 0 0 0 0
10 6 3 3 3 3 3 3 6 6 6 3 10 13 10 10 10 10 10 3 3 3 3 3 3 3 0 0 0 0 0 0 0 0 0 0 0 0 0 0 0 0 0
6 3 3 3 3 3 3 3 6 3 3 6 6 10 13 10 10 13 10 10 6 3 3 3 0 0 0 0 0 0 0 0 0 0 0 0 0 0 0 0 0 0 0
6 0 0 3 3 3 3 3 6 6 3 6 13 13 10 10 13 10 10 6 6 3 3 3 3 3 0 0 0 0 0 0 0 0 0 0 0 0 0 0 0 0 0
3 0 0 0 0 0 3 3 3 3 6 6 6 13 10 13 13 13 10 6 6 3 3 3 3 3 0 0 0 0 0 0 0 0 0 0 0 0 0 0 0 0 0
3 3 3 3 3 3 3 6 10 6 3 3 6 10 10 10 10 10 6 6 6 3 3 3 3 3 3 0 0 0 0 0 0 0 0 0 0 0 0 0 0 0 0
3 3 3 0 0 3 3 6 13 6 6 6 6 10 10 10 10 6 6 3 6 3 3 0 0 0 0 0 0 0 0 0 0 0 0 0 0 0 0 0 0 0 0
3 3 3 0 0 3 3 6 10 10 6 6 6 10 10 6 6 6 3 3 0 0 0 0 0 0 0 0 0 0 0 0 0 0 0 0 0 0 0 0 0 0 0
3 3 3 0 3 3 6 6 6 6 6 6 10 6 6 6 6 6 3 0 0 0 0 0 0 0 0 0 0 0 0 0 0 0 0 0 0 0 0 0 0 0 0
0 3 3 0 3 3 3 6 3 3 0 6 6 3 3 3 6 6 0 0 0 0 0 0 0 0 0 0 0 0 0 0 0 0 0 0 0 0 0 0 0 0 0
0 0 0 0 3 0 0 0 0 0 3 0 0 3 3 3 3 0 0 0 0 0 0 0 0 0 0 0 0 0 0 0 0 0 0 0 0 0 0 0 0 0 0
0 0 0 0 0 0 0 0 0 0 0 0 0 0 0 0 0 0 0 0 0 0 0 0 0 0 0 0 0 0 0 0 0 0 0 0 0 0 0 0 0 0 0
0 3 0 0 0 0 0 0 0 0 0 0 0 0 0 0 0 0 0 0 0 0 0 0 0 0 0 0 0 0 0 0 0 0 0 0 0 0 0 0 0 0 0
Height
5861 5859 5856 5854 5852 5850 5848 5847 5847 5847 5849 5850 5852 5853 5856 5858 5861 5864 5867 5869 5872 5874 5877 5879 5881 5883 5884 5885 5886 5887 5887 5887 5888 5888 5888 5888 5888 5889 5889 5889 5889 5889 5889
5859 5857 5855 5853 5851 5849 5847 5846 5845 5845 5847 5848 5850 5852 5854 5856 5859 5862 5865 5868 5871 5873 5875 5878 5880 5882 5883 5885 5886 5887 5887 5887 5888 5888 5888 5889 5889 5889 5889 5889 5890 5890 5890
5858 5856 5854 5852 5850 5848 5846 5844 5844 5844 5845 5847 5848 5850 5852 5855 5858 5861 5864 5867 5869 5871 5874 5877 5879 5881 5883 5884 5885 5886 5886 5887 5887 5888 5889 5889 5889 5889 5889 5889 5890 5890 5890
5857 5855 5853 5851 5849 5846 5844 5843 5842 5842 5843 5845 5846 5849 5851 5854 5856 5859 5862 5865 5867 5870 5873 5875 5877 5880 5881 5883 5884 5885 5886 5886 5887 5888 5888 5889 5889 5889 5889 5889 5889 5889 5890
5855 5854 5852 5850 5848 5846 5843 5842 5841 5841 5842 5844 5845 5847 5850 5852 5855 5857 5860 5863 5866 5869 5871 5873 5876 5878 5880 5881 5882 5884 5885 5885 5886 5887 5888 5888 5888 5889 5889 5889 5889 5889 5889
5853 5852 5851 5849 5847 5845 5843 5841 5840 5839 5840 5842 5843 5845 5848 5850 5852 5855 5858 5861 5864 5867 5869 5872 5874 5876 5878 5879 5881 5882 5883 5884 5885 5886 5887 5887 5888 5888 5888 5888 5888 5888 5889
5851 5850 5849 5847 5846 5844 5842 5840 5839 5839 5839 5839 5840 5843 5845 5848 5850 5853 5857 5860 5863 5865 5867 5870 5872 5874 5876 5877 5879 5880 5881 5882 5883 5884 5885 5886 5886 5886 5887 5887 5887 5887 5887
5849 5848 5847 5846 5844 5842 5841 5840 5839 5838 5837 5838 5839 5842 5844 5846 5849 5852 5855 5858 5860 5863 5865 5867 5869 5871 5873 5875 5877 5878 5879 5880 5881 5882 5883 5883 5884 5884 5885 5885 5885 5885 5886
5847 5847 5846 5845 5843 5841 5840 5839 5838 5837 5837 5837 5838 5840 5842 5845 5848 5850 5853 5855 5858 5860 5862 5864 5867 5869 5870 5872 5874 5875 5876 5878 5879 5880 5880 5881 5881 5882 5882 5883 5883 5884 5883
5845 5845 5844 5843 5842 5840 5839 5839 5838 5837 5837 5837 5838 5839 5841 5844 5846 5848 5850 5852 5855 5857 5859 5861 5863 5865 5867 5869 5871 5872 5873 5874 5875 5876 5877 5878 5878 5879 5879 5880 5880 5880 5880
5843 5843 5842 5841 5840 5839 5839 5838 5837 5837 5837 5837 5837 5838 5840 5841 5844 5846 5847 5849 5851 5853 5856 5858 5860 5862 5864 5865 5867 5868 5869 5871 5872 5872 5873 5874 5875 5875 5875 5876 5876 5876 5876
5841 5841 5840 5839 5838 5838 5837 5837 5836 5836 5836 5836 5836 5837 5838 5839 5841 5843 5844 5846 5848 5850 5852 5854 5856 5858 5860 5861 5863 5864 5865 5866 5867 5868 5869 5869 5870 5870 5871 5871 5871 5871 5871
5839 5839 5838 5837 5837 5836 5836 5835 5835 5835 5835 5835 5835 5836 5837 5838 5839 5840 5842 5843 5845 5846 5848 5850 5852 5853 5855 5857 5858 5859 5860 5861 5862 5863 5863 5864 5865 5865 5865 5865 5865 5865 5865
5837 5836 5836 5835 5835 5834 5834 5833 5833 5833 5833 5833 5834 5834 5835 5836 5836 5838 5839 5840 5841 5842 5844 5845 5847 5849 5850 5852 5853 5854 5855 5855 5856 5857 5858 5858 5859 5859 5859 5859 5859 5859 5858
5833 5833 5833 5832 5832 5831 5831 5830 5830 5831 5831 5831 5831 5832 5832 5833 5833 5834 5835 5836 5837 5838 5839 5841 5842 5844 5845 5846 5847 5848 5849 5849 5850 5851 5852 5852 5853 5852 5852 5852 5852 5852 5851
5829 5829 5829 5829 5829 5828 5828 5827 5827 5827 5828 5828 5829 5829 5829 5829 5830 5831 5831 5832 5833 5834 5835 5836 5837 5839 5840 5841 5842 5843 5844 5844 5845 5845 5846 5846 5846 5846 5845 5845 5845 5844 5843
5825 5825 5824 5824 5825 5824 5824 5824 5824 5824 5824 5825 5825 5825 5826 5826 5827 5827 5827 5828 5829 5829 5830 5831 5832 5834 5835 5836 5836 5837 5838 5838 5839 5839 5839 5839 5839 5839 5838 5838 5837 5836 5835
5820 5820 5820 5820 5820 5820 5820 5820 5820 5820 5820 5821 5821 5821 5821 5822 5822 5822 5823 5823 5824 5825 5825 5826 5827 5828 5829 5830 5830 5831 5831 5832 5832 5832 5832 5832 5831 5831 5830 5830 5828 5827 5826
5814 5814 5815 5815 5815 5815 5815 5815 5815 5815 5816 5816 5816 5816 5816 5817 5817 5818 5819 5819 5820 5820 5820 5821 5821 5822 5823 5823 5824 5824 5825 5825 5824 5824 5824 5824 5823 5823 5822 5821 5819 5818 5816
5807 5808 5809 5809 5810 5810 5809 5809 5809 5809 5810 5810 5810 5811 5811 5812 5813 5813 5814 5814 5814 5814 5815 5815 5815 5815 5816 5817 5817 5817 5817 5817 5817 5816 5816 5815 5814 5813 5812 5811 5809 5807 5805
5800 5801 5802 5802 5803 5803 5803 5803 5803 5803 5803 5804 5804 5805 5806 5807 5808 5808 5809 5809 5809 5809 5809 5809 5808 5809 5809 5810 5810 5810 5810 5809 5809 5808 5807 5806 5805 5804 5802 5801 5799 5796 5794
5793 5794 5795 5795 5796 5796 5796 5796 5796 5796 5796 5797 5798 5798 5799 5800 5801 5802 5803 5803 5803 5803 5803 5802 5802 5802 5802 5802 5802 5802 5802 5801 5800 5799 5798 5797 5795 5793 5792 5789 5787 5785 5783
5786 5787 5788 5788 5788 5789 5789 5789 5789 5789 5789 5790 5791 5793 5794 5795 5795 5796 5796 5797 5796 5796 5796 5795 5795 5795 5795 5795 5795 5794 5794 5793 5791 5789 5788 5786 5784 5783 5781 5778 5776 5773 5771
5779 5780 5780 5781 5781 5782 5781 5781 5782 5782 5783 5784 5785 5787 5788 5788 5789 5789 5789 5789 5789 5789 5788 5788 5788 5788 5788 5787 5787 5786 5785 5784 5782 5780 5778 5776 5774 5772 5769 5767 5764 5761 5758
5771 5772 5773 5774 5774 5775 5775 5775 5776 5776 5777 5778 5779 5780 5781 5782 5782 5782 5782 5782 5782 5782 5782 5781 5781 5780 5780 5779 5779 5777 5776 5774 5772 5770 5769 5766 5764 5761 5758 5755 5752 5749 5745
5764 5765 5766 5766 5767 5767 5768 5769 5770 5771 5772 5772 5773 5774 5775 5775 5775 5775 5775 5775 5775 5775 5775 5774 5773 5772 5772 5770 5769 5768 5766 5764 5763 5761 5758 5755 5752 5749 5746 5742 5739 5735 5731
Wind_Speed
14 15 15 15 14 13 10 8 6 5 6 7 10 11 13 14 14 15 15 14 13 12 11 10 9 8 7 5 4 3 2 1 1 1 1 2 2 2 2 2 2 2 2
15 15 15 16 14 12 10 7 5 5 6 8 10 12 13 14 15 15 15 15 14 13 12 11 11 10 8 6 5 4 3 2 2 1 1 1 1 1 1 1 1 1 2
14 14 15 14 12 11 9 7 5 5 7 8 10 11 13 15 15 14 16 16 15 14 14 13 11 10 9 8 6 5 4 3 3 3 2 1 1 1 1 0 0 1 1
14 14 14 13 12 10 9 7 4 5 7 9 11 12 13 15 15 16 16 16 15 15 14 14 12 11 10 9 8 7 6 5 4 4 3 2 2 1 1 1 1 1 1
12 13 13 12 11 9 8 6 4 5 7 10 11 13 14 16 16 16 16 16 16 15 15 14 13 12 11 10 9 9 7 7 6 6 5 4 3 2 2 2 2 2 2
12 12 12 11 10 9 8 6 5 4 7 9 12 13 14 16 16 16 16 16 16 16 15 15 14 13 12 12 11 10 9 9 8 8 7 6 5 5 4 4 4 4 4
10 11 10 9 9 8 7 6 4 3 5 8 10 13 15 16 15 16 17 17 17 16 16 16 15 14 13 12 11 11 11 10 10 10 10 9 8 7 7 6 6 6 7
10 10 9 9 8 7 7 5 5 4 4 6 10 13 14 16 15 16 17 18 17 17 17 18 17 16 15 14 13 12 12 12 12 12 12 11 11 10 10 10 10 10 10
10 10 9 9 8 7 6 6 5 4 4 5 8 11 14 15 15 16 17 18 18 19 18 19 18 17 16 15 15 14 14 14 14 14 14 14 13 13 13 13 13 13 13
10 10 9 8 7 7 6 6 5 4 3 4 5 8 12 13 14 15 16 17 18 19 19 20 20 19 18 17 16 16 16 16 16 16 15 15 15 15 16 16 16 16 16
10 9 8 7 7 6 6 6 5 4 4 4 5 7 10 12 13 14 15 16 18 19 19 20 20 20 20 19 19 18 18 18 18 18 19 18 18 19 19 19 19 19 19
11 10 8 7 7 7 7 7 6 5 5 5 6 7 9 11 12 13 15 16 17 19 20 21 21 22 22 21 20 20 20 20 20 21 21 21 22 22 22 22 22 22 22
11 11 10 9 8 8 8 9 7 7 7 6 7 8 9 11 13 14 15 16 16 18 20 21 22 23 23 22 21 21 21 22 22 22 22 23 23 23 24 24 24 24 24
13 11 12 11 10 10 10 10 8 8 8 8 8 9 10 11 12 13 14 16 17 18 19 21 22 22 22 22 22 22 23 23 23 23 23 23 23 24 24 25 26 26 26
14 13 12 12 11 11 11 11 10 10 10 10 10 11 11 12 13 14 15 16 17 18 19 20 21 22 22 23 23 22 22 23 24 24 23 24 24 25 25 26 27 28 28
14 14 14 14 13 12 12 12 12 11 12 12 12 12 12 13 14 15 16 16 17 18 20 21 22 22 22 24 24 24 24 23 24 25 25 25 26 26 27 27 28 29 30
17 16 15 14 14 14 13 13 13 13 14 14 14 15 15 15 16 17 17 17 18 19 20 21 21 21 22 23 25 25 25 25 25 26 27 28 28 28 28 29 30 31 32
19 18 18 16 16 15 14 14 14 15 15 16 16 16 16 17 17 17 17 17 18 19 20 21 22 23 23 24 24 25 26 27 27 28 28 29 30 30 31 32 33 34 35
21 20 19 18 17 16 16 16 16 16 17 16 17 18 18 18 18 18 19 18 19 20 20 23 24 25 24 25 25 25 26 27 29 29 30 32 32 33 35 36 36 37 39
23 22 21 20 19 18 18 18 19 19 19 19 18 18 18 18 18 19 19 19 20 21 22 23 24 24 25 25 26 27 29 30 30 30 31 33 33 34 35 37 38 39 40
24 23 23 22 21 21 21 21 20 20 21 21 20 20 20 19 20 20 20 20 21 22 22 24 24 25 26 27 28 29 30 30 31 32 32 33 35 36 38 40 40 41 42
24 24 24 23 23 23 23 23 23 22 21 21 21 20 21 22 22 22 22 21 22 23 24 24 25 25 25 26 27 28 29 29 30 32 34 36 37 38 40 41 42 42 43
24 24 23 23 23 23 22 23 23 22 22 22 21 21 22 22 23 24 24 23 23 25 25 25 25 26 26 27 27 28 29 30 32 34 35 36 37 39 41 42 43 44 45
24 24 23 23 23 23 23 23 23 23 22 22 21 22 23 23 24 23 22 23 24 24 24 25 26 26 27 28 30 30 30 32 33 34 36 37 39 41 42 44 44 45 46
24 24 24 23 23 23 22 21 21 21 22 22 22 23 23 24 24 23 22 21 22 22 23 25 26 26 28 29 31 32 33 33 34 36 38 40 41 42 43 44 46 47 48
23 23 23 23 23 22 21 21 20 21 21 21 22 22 23 23 23 23 24 24 24 24 25 26 26 27 29 30 31 33 34 36 37 38 39 40 42 43 44 46 48 49 50
Wind_Direction
330 333 333 331 330 326 317 310 293 254 226 217 216 211 208 206 202 200 199 201 202 203 205 205 201 201 204 209 214 226 224 211 175 141 129 128 123 107 111 106 92 66 49
326 330 332 330 327 327 320 312 304 263 219 212 211 211 209 204 202 203 200 200 202 202 203 203 201 203 207 210 214 222 214 209 206 189 158 149 143 123 125 110 87 45 28
322 323 326 327 326 325 322 313 289 248 230 217 211 210 208 202 201 200 201 202 202 203 205 203 203 207 210 213 217 220 218 220 214 209 201 188 181 171 166 178 285 326 344
314 320 325 324 325 324 321 321 298 245 225 214 205 203 200 196 196 199 202 203 203 205 206 205 207 210 214 218 221 223 226 225 218 213 214 215 210 202 198 216 268 298 323
310 317 320 319 323 324 322 316 298 244 222 215 204 203 201 200 199 201 203 205 205 208 209 210 213 216 219 222 224 226 232 230 226 224 227 228 232 244 248 248 262 275 289
304 309 313 316 322 325 326 319 305 253 227 220 212 207 206 204 203 202 205 206 207 209 212 214 217 221 224 226 227 229 232 233 232 233 235 236 237 246 253 261 269 274 279
296 300 307 312 318 321 324 323 304 266 233 222 214 212 210 208 205 204 207 209 211 213 214 216 220 223 225 225 228 231 235 236 235 236 237 239 242 247 253 260 266 272 278
292 296 299 304 313 318 319 312 296 279 244 220 211 211 210 208 207 208 212 214 216 219 221 221 225 229 229 229 231 234 237 239 238 237 239 243 246 251 256 261 265 269 275
291 295 296 300 308 316 318 317 307 285 253 223 216 216 213 212 213 215 217 219 222 225 227 227 229 231 232 232 234 237 239 243 243 242 243 247 250 254 258 262 266 270 274
290 290 291 294 299 310 314 316 317 313 277 238 223 216 213 212 216 218 222 227 229 229 231 229 230 233 236 238 238 239 242 244 245 246 248 251 254 257 261 264 267 270 273
288 287 285 286 291 298 307 307 301 296 284 266 250 236 223 218 219 223 226 230 231 231 233 233 233 236 239 241 243 244 246 248 250 251 253 255 257 259 262 265 267 270 273
288 284 282 282 287 290 299 302 291 280 274 271 260 245 232 224 224 229 232 234 234 235 237 236 237 239 241 243 246 246 247 251 253 254 256 258 259 261 263 265 268 270 273
285 281 279 282 289 293 298 298 285 276 272 269 266 259 249 242 235 238 239 238 239 240 240 240 240 242 243 245 249 251 251 254 257 258 258 260 262 264 265 266 268 270 272
275 279 282 286 286 289 293 290 281 276 273 270 268 263 257 252 248 247 247 246 245 243 243 244 243 245 246 249 251 254 255 257 259 260 261 264 266 268 268 268 270 271 272
273 280 283 286 284 283 285 282 273 270 269 267 264 265 263 255 253 251 251 250 248 247 246 245 245 247 250 251 253 257 259 259 260 262 264 266 268 269 271 271 272 273 274
274 279 281 285 283 282 283 275 269 267 267 267 265 262 261 257 256 255 255 253 252 252 252 250 249 253 256 254 257 260 262 263 263 264 265 267 268 270 272 273 274 275 276
273 274 281 282 281 279 278 275 270 266 264 264 265 265 263 260 260 260 257 257 256 257 258 255 255 257 259 261 260 260 260 262 264 265 268 269 270 270 271 272 273 275 276
272 277 279 282 282 281 276 276 274 266 263 261 262 265 262 260 260 259 260 260 261 262 260 257 257 259 263 263 263 263 263 264 265 267 270 271 270 270 272 274 275 276 277
273 274 276 280 276 275 274 272 273 270 264 261 263 262 264 261 259 259 260 260 261 260 260 259 258 259 261 263 264 265 266 266 268 269 270 270 271 273 275 276 277 277 278
270 271 272 275 272 270 270 270 270 269 267 263 262 264 265 263 261 261 262 262 262 263 261 261 260 259 261 264 265 266 267 269 270 272 272 272 273 274 275 277 278 280 281
268 268 269 270 270 269 268 268 269 269 267 263 261 260 261 261 262 264 262 265 265 266 264 263 263 263 264 265 268 268 269 271 272 274 275 275 276 277 278 280 280 281 282
266 266 268 269 270 269 268 268 266 266 264 261 259 259 258 258 259 261 262 264 266 268 267 267 265 265 265 267 270 270 271 272 274 276 276 276 277 279 281 281 282 283 284
262 263 266 267 268 268 268 269 265 263 260 256 256 257 258 262 264 264 263 266 268 270 272 270 269 268 269 271 272 274 274 276 277 279 279 278 278 279 281 282 283 284 285
260 262 263 266 267 268 270 267 262 258 256 254 254 256 259 263 265 265 268 269 269 270 272 272 269 271 272 273 274 276 275 277 277 277 279 279 280 281 281 283 284 285 285
261 262 264 266 268 268 266 261 259 256 256 257 258 258 258 262 263 264 267 271 271 272 272 272 273 273 274 274 276 278 278 279 278 279 279 281 282 284 284 284 285 286 287
261 263 264 264 264 264 261 258 256 256 256 256 258 260 260 263 266 268 271 271 271 271 273 274 275 275 276 277 278 280 280 282 282 282 283 284 285 286 286 287 288 289 289